When you browse on this site, cookies collect data to enhance your experience and personalize the content and advertising you see.
Visit our Privacy Policy to learn more. By continuing to use the site, you agree to this use of cookies and data.
  • In Österreich
  • Länderverzeichnis
  • Für 7 Tage
  • Wassertemperatur
  • Wetterkarte
  • News
  • Widgets
  • user-avatar
    Anmelden

    Stündliche Wetter Tarija

    Heute, 28 Mai, Donnerstag

    Zeit Temperatur Niederschläge Wind Luftdruck Luftfeuchtigkeit
    00:00 +14°C° 0 mm 1 m/S 596 mmHg 49%
    01:00 +14°C° 0 mm 1 m/S 596 mmHg 48%
    02:00 +14°C° 0 mm 1 m/S 595 mmHg 47%
    03:00 +14°C° 0 mm 1 m/S 595 mmHg 47%
    04:00 +13°C° 0 mm 1 m/S 595 mmHg 47%
    05:00 +13°C° 0 mm 1 m/S 595 mmHg 47%
    06:00 +15°C° 0 mm 1 m/S 596 mmHg 46%
    07:00 +16°C° 0 mm 1 m/S 597 mmHg 45%
    08:00 +18°C° 0 mm 1 m/S 598 mmHg 44%
    09:00 +20°C° 0 mm 1 m/S 599 mmHg 38%
    10:00 +22°C° 0 mm 1 m/S 599 mmHg 32%
    11:00 +24°C° 0 mm 1 m/S 600 mmHg 25%
    12:00 +25°C° 0 mm 2 m/S 600 mmHg 25%
    13:00 +26°C° 0 mm 2 m/S 599 mmHg 24%
    14:00 +27°C° 0 mm 2 m/S 598 mmHg 23%
    15:00 +25°C° 0 mm 2 m/S 598 mmHg 30%
    16:00 +24°C° 0 mm 2 m/S 597 mmHg 37%
    17:00 +21°C° 0 mm 2 m/S 597 mmHg 43%
    18:00 +19°C° 0 mm 2 m/S 596 mmHg 50%
    19:00 +18°C° 0 mm 1 m/S 596 mmHg 58%
    20:00 +15°C° 0 mm 1 m/S 595 mmHg 65%
    21:00 +14°C° 0 mm 1 m/S 595 mmHg 64%
    22:00 +14°C° 0 mm 1 m/S 596 mmHg 64%
    23:00 +13°C° 0 mm 0 m/S 596 mmHg 63%

    Morgen, 29 Mai, Freitag

    Zeit Temperatur Niederschläge Wind Luftdruck Luftfeuchtigkeit
    00:00 +13°C° 0 mm 1 m/S 595 mmHg 61%
    01:00 +13°C° 0 mm 1 m/S 595 mmHg 59%
    02:00 +13°C° 0 mm 1 m/S 595 mmHg 56%
    03:00 +13°C° 0 mm 1 m/S 595 mmHg 54%
    04:00 +13°C° 0 mm 1 m/S 595 mmHg 51%
    05:00 +13°C° 0 mm 1 m/S 595 mmHg 49%
    06:00 +14°C° 0 mm 1 m/S 596 mmHg 46%
    07:00 +16°C° 0 mm 1 m/S 597 mmHg 43%
    08:00 +18°C° 0 mm 1 m/S 598 mmHg 40%
    09:00 +20°C° 0 mm 1 m/S 599 mmHg 33%
    10:00 +23°C° 0 mm 1 m/S 599 mmHg 26%
    11:00 +25°C° 0 mm 2 m/S 600 mmHg 19%
    12:00 +26°C° 0 mm 2 m/S 600 mmHg 18%
    13:00 +26°C° 0 mm 2 m/S 599 mmHg 18%
    14:00 +27°C° 0 mm 2 m/S 599 mmHg 18%
    15:00 +26°C° 0 mm 2 m/S 598 mmHg 26%
    16:00 +24°C° 0 mm 2 m/S 597 mmHg 33%
    17:00 +23°C° 0 mm 2 m/S 597 mmHg 41%
    18:00 +20°C° 0 mm 2 m/S 596 mmHg 50%
    19:00 +18°C° 0 mm 1 m/S 596 mmHg 59%
    20:00 +14°C° 0 mm 0 m/S 595 mmHg 68%
    21:00 +14°C° 0 mm 0 m/S 595 mmHg 68%
    22:00 +13°C° 0 mm 0 m/S 595 mmHg 67%
    23:00 +13°C° 0 mm 0 m/S 595 mmHg 66%

    übermorgen, 30 Mai, Samstag

    Zeit Temperatur Niederschläge Wind Luftdruck Luftfeuchtigkeit
    00:00 +13°C° 0 mm 0 m/S 595 mmHg 64%
    01:00 +13°C° 0 mm 1 m/S 595 mmHg 62%
    02:00 +13°C° 0 mm 1 m/S 594 mmHg 60%
    03:00 +13°C° 0 mm 1 m/S 594 mmHg 58%
    04:00 +13°C° 0 mm 1 m/S 594 mmHg 56%
    05:00 +13°C° 0 mm 1 m/S 594 mmHg 55%
    06:00 +14°C° 0 mm 1 m/S 595 mmHg 52%
    07:00 +16°C° 0 mm 1 m/S 596 mmHg 49%
    08:00 +18°C° 0 mm 1 m/S 597 mmHg 45%
    09:00 +21°C° 0 mm 1 m/S 597 mmHg 38%
    10:00 +23°C° 0 mm 1 m/S 598 mmHg 30%
    11:00 +25°C° 0 mm 1 m/S 599 mmHg 23%
    12:00 +26°C° 0 mm 1 m/S 598 mmHg 21%
    13:00 +27°C° 0 mm 2 m/S 598 mmHg 20%
    14:00 +28°C° 0 mm 2 m/S 597 mmHg 18%
    15:00 +27°C° 0 mm 2 m/S 596 mmHg 26%
    16:00 +25°C° 0 mm 2 m/S 596 mmHg 33%
    17:00 +24°C° 0 mm 2 m/S 595 mmHg 41%
    18:00 +21°C° 0 mm 2 m/S 595 mmHg 48%
    19:00 +20°C° 0 mm 1 m/S 594 mmHg 56%
    20:00 +18°C° 0 mm 1 m/S 594 mmHg 63%
    21:00 +16°C° 0 mm 1 m/S 594 mmHg 62%
    22:00 +16°C° 0 mm 1 m/S 594 mmHg 61%
    23:00 +16°C° 0 mm 1 m/S 594 mmHg 60%

    31 Mai, Sonntag

    Zeit Temperatur Niederschläge Wind Luftdruck Luftfeuchtigkeit
    00:00 +16°C° 0 mm 2 m/S 594 mmHg 54%
    01:00 +16°C° 0 mm 3 m/S 595 mmHg 49%
    02:00 +16°C° 0 mm 3 m/S 595 mmHg 44%
    03:00 +16°C° 0 mm 3 m/S 595 mmHg 42%
    04:00 +14°C° 0 mm 3 m/S 595 mmHg 40%
    05:00 +14°C° 0 mm 4 m/S 595 mmHg 37%
    06:00 +16°C° 0 mm 3 m/S 596 mmHg 39%
    07:00 +16°C° 0 mm 3 m/S 596 mmHg 41%
    08:00 +17°C° 0 mm 3 m/S 597 mmHg 42%
    09:00 +19°C° 0 mm 5 m/S 598 mmHg 35%
    10:00 +22°C° 0 mm 6 m/S 599 mmHg 28%
    11:00 +24°C° 0 mm 8 m/S 600 mmHg 21%
    12:00 +26°C° 0 mm 9 m/S 600 mmHg 21%
    13:00 +26°C° 0 mm 10 m/S 599 mmHg 21%
    14:00 +27°C° 0 mm 10 m/S 599 mmHg 20%
    15:00 +24°C° 0 mm 9 m/S 598 mmHg 30%
    16:00 +22°C° 0 mm 8 m/S 597 mmHg 40%
    17:00 +19°C° 0 mm 6 m/S 596 mmHg 49%
    18:00 +17°C° 0 mm 6 m/S 596 mmHg 56%
    19:00 +15°C° 0 mm 5 m/S 597 mmHg 63%
    20:00 +13°C° 0 mm 4 m/S 597 mmHg 70%
    21:00 +13°C° 0 mm 4 m/S 597 mmHg 70%
    22:00 +13°C° 0 mm 4 m/S 597 mmHg 69%
    23:00 +12°C° 0 mm 5 m/S 597 mmHg 69%

    1 Juni, Montag

    Zeit Temperatur Niederschläge Wind Luftdruck Luftfeuchtigkeit
    00:00 +12°C° 0 mm 5 m/S 597 mmHg 69%
    01:00 +12°C° 0 mm 4 m/S 597 mmHg 69%
    02:00 +11°C° 0 mm 4 m/S 597 mmHg 69%
    03:00 +11°C° 0 mm 4 m/S 596 mmHg 69%
    04:00 +11°C° 0 mm 4 m/S 596 mmHg 70%
    05:00 +10°C° 0 mm 4 m/S 596 mmHg 70%
    06:00 +11°C° 0 mm 4 m/S 597 mmHg 68%
    07:00 +11°C° 0 mm 4 m/S 597 mmHg 65%
    08:00 +11°C° 0 mm 4 m/S 598 mmHg 63%
    09:00 +14°C° 0 mm 5 m/S 599 mmHg 52%
    10:00 +16°C° 0 mm 6 m/S 599 mmHg 41%
    11:00 +18°C° 0 mm 7 m/S 600 mmHg 31%
    12:00 +18°C° 0 mm 7 m/S 599 mmHg 31%
    13:00 +18°C° 0 mm 7 m/S 599 mmHg 31%
    14:00 +18°C° 0 mm 7 m/S 598 mmHg 31%
    15:00 +17°C° 0 mm 6 m/S 597 mmHg 35%
    16:00 +15°C° 0 mm 6 m/S 597 mmHg 39%
    17:00 +14°C° 0 mm 5 m/S 596 mmHg 44%
    18:00 +12°C° 0 mm 4 m/S 596 mmHg 51%
    19:00 +10°C° 0 mm 3 m/S 596 mmHg 58%
    20:00 +8°C° 0 mm 2 m/S 596 mmHg 65%
    21:00 +8°C° 0 mm 2 m/S 596 mmHg 65%
    22:00 +8°C° 0 mm 1 m/S 596 mmHg 65%
    23:00 +8°C° 0 mm 1 m/S 596 mmHg 65%

    2 Juni, Dienstag

    Zeit Temperatur Niederschläge Wind Luftdruck Luftfeuchtigkeit
    00:00 +8°C° 0 mm 1 m/S 596 mmHg 65%
    01:00 +7°C° 0 mm 1 m/S 595 mmHg 65%
    02:00 +7°C° 0 mm 1 m/S 595 mmHg 65%
    03:00 +7°C° 0 mm 1 m/S 595 mmHg 64%
    04:00 +6°C° 0 mm 1 m/S 595 mmHg 63%
    05:00 +6°C° 0 mm 1 m/S 594 mmHg 62%
    06:00 +7°C° 0 mm 1 m/S 595 mmHg 57%
    07:00 +9°C° 0 mm 1 m/S 596 mmHg 52%
    08:00 +10°C° 0 mm 1 m/S 597 mmHg 47%
    09:00 +12°C° 0 mm 2 m/S 597 mmHg 41%
    10:00 +15°C° 0 mm 2 m/S 598 mmHg 34%
    11:00 +17°C° 0 mm 3 m/S 598 mmHg 28%
    12:00 +18°C° 0 mm 3 m/S 598 mmHg 26%
    13:00 +19°C° 0 mm 3 m/S 597 mmHg 25%
    14:00 +21°C° 0 mm 4 m/S 597 mmHg 23%
    15:00 +19°C° 0 mm 4 m/S 596 mmHg 29%
    16:00 +18°C° 0 mm 4 m/S 595 mmHg 34%
    17:00 +17°C° 0 mm 4 m/S 594 mmHg 39%
    18:00 +14°C° 0 mm 4 m/S 594 mmHg 46%
    19:00 +12°C° 0 mm 3 m/S 593 mmHg 53%
    20:00 +10°C° 0 mm 3 m/S 593 mmHg 60%
    21:00 +9°C° 0 mm 2 m/S 593 mmHg 58%
    22:00 +9°C° 0 mm 2 m/S 593 mmHg 56%
    23:00 +10°C° 0 mm 1 m/S 593 mmHg 54%
    Mehr zeigen